GEFSMA_500_meanwind_042.txt.gz
Wind_Speed
14 14 13 13 12 12 12 11 10 10 10 9 8 8 8 7 7 8 9 10 10 11 11 11 12 12 12 13 13 13 14 15 15 15 15 14 15 14 15 15 14 13 12
17 17 16 15 14 14 14 13 12 11 11 11 10 10 10 9 9 9 10 11 12 12 13 13 13 13 14 14 14 13 14 14 15 15 15 15 16 15 16 16 16 16 14
19 18 17 17 16 16 16 15 14 13 13 12 12 12 11 11 11 11 11 11 13 13 14 15 15 15 16 16 16 16 15 15 15 16 16 16 16 16 16 17 17 18 17
21 20 20 19 18 17 17 17 16 15 14 13 13 13 13 13 12 12 12 12 13 14 15 16 16 17 18 18 18 19 18 18 18 18 17 17 17 17 17 17 18 19 20
22 22 22 21 21 20 19 19 18 17 16 15 15 15 15 15 15 14 14 14 14 14 16 17 18 19 20 20 21 21 21 21 21 21 20 20 19 18 18 19 19 19 21
23 23 23 23 23 22 21 21 20 20 19 18 17 17 17 17 17 17 17 17 16 16 17 18 18 20 21 22 22 23 23 23 24 23 23 22 21 21 20 20 20 20 21
25 25 26 26 25 25 24 23 23 22 21 20 20 19 19 19 19 20 20 20 19 18 19 19 19 20 21 22 23 24 24 25 25 25 25 25 24 23 22 21 21 21 21
27 28 28 28 27 27 27 25 24 23 22 22 22 21 21 21 21 21 22 23 22 21 22 21 21 21 22 23 23 24 25 25 26 26 26 26 26 24 24 23 23 22 22
30 30 30 30 30 29 28 27 26 24 23 23 23 22 22 22 23 23 23 24 25 23 24 24 24 23 22 23 24 25 24 25 25 26 26 26 26 26 25 25 24 24 23
32 32 32 32 32 31 30 29 27 26 25 24 24 24 24 24 25 25 25 25 26 26 25 25 26 25 23 23 24 25 24 24 25 25 26 26 26 26 26 26 25 25 25
36 36 35 34 32 31 32 31 29 27 26 25 26 25 25 25 26 25 26 26 26 26 26 25 25 26 25 23 24 26 25 24 24 25 26 26 27 27 27 27 26 26 26
39 38 36 34 32 31 31 31 30 28 27 26 26 26 26 26 26 26 26 26 26 25 25 25 25 26 26 25 24 26 25 25 24 25 25 26 27 27 27 27 27 26 27
41 37 34 33 32 31 31 31 30 28 26 26 26 26 26 26 26 26 26 26 26 25 25 25 25 24 25 25 25 25 25 25 25 25 25 26 27 27 27 27 27 26 26
38 38 37 36 33 31 31 31 30 28 26 25 25 25 25 25 26 26 26 26 25 25 25 24 24 25 25 25 25 25 25 25 25 25 25 26 26 27 27 27 27 27 26
37 37 34 31 31 31 30 30 28 26 24 24 24 24 25 26 26 25 25 25 25 25 24 24 24 24 24 24 25 26 25 26 25 24 25 25 26 27 27 28 28 27 27
33 31 29 29 28 28 27 26 24 23 23 23 24 24 25 25 25 25 25 25 25 25 24 25 25 25 24 23 24 25 25 25 25 25 25 25 25 26 27 27 27 27 27
26 25 25 25 24 23 22 21 21 21 22 24 24 24 25 25 25 25 25 25 25 25 24 24 25 24 24 24 23 24 25 25 26 26 25 25 25 25 26 26 26 26 26
17 16 16 17 16 16 17 18 19 21 22 23 24 24 25 25 25 25 25 25 24 24 24 24 25 24 23 24 24 23 24 25 26 26 26 25 25 25 25 25 25 26 26
10 10 11 12 13 14 16 18 20 21 22 23 23 24 24 24 25 25 24 24 24 24 24 23 24 24 23 23 24 24 24 24 25 26 26 26 26 25 25 25 25 25 25
7 8 10 12 14 16 17 19 20 20 21 22 23 24 24 24 24 24 24 24 23 23 23 23 24 24 23 22 22 23 24 25 25 26 27 27 27 27 26 26 26 26 26
7 9 12 14 16 17 18 19 20 21 22 22 23 22 23 23 23 23 24 24 24 24 24 24 24 23 23 22 22 22 22 22 23 25 26 27 27 28 28 28 28 28 27
11 12 14 16 17 18 19 20 21 22 22 22 22 22 22 22 22 23 23 23 23 23 23 23 24 23 23 22 22 21 21 20 20 23 25 25 26 27 29 29 30 30 30
13 14 15 17 18 19 20 21 22 22 22 22 22 22 22 22 22 21 22 22 22 22 22 22 22 22 22 22 22 21 21 20 20 20 21 22 25 27 28 28 29 31 32
13 15 16 18 19 19 20 21 21 22 22 22 22 21 21 21 21 21 20 21 21 21 21 21 21 21 21 20 20 20 20 20 19 19 21 21 22 24 26 28 30 31 32
14 14 15 16 16 17 18 19 20 21 21 21 20 20 20 20 20 20 19 18 18 18 19 19 19 19 19 19 19 19 19 18 19 20 21 21 22 23 25 26 27 29 31
14 14 15 15 14 15 15 16 17 18 18 18 17 17 17 18 18 17 16 16 16 16 16 16 17 17 17 17 18 18 18 18 18 18 19 20 20 21 22 23 25 26 28

GEFSMA_500_meanwind_048.txt.gz
Wind_Speed
17 17 17 17 17 16 16 15 13 12 11 9 8 7 7 7 6 6 6 6 6 6 7 7 7 8 8 8 9 9 10 10 12 13 14 14 14 15 15 15 15 15 14
17 18 18 18 18 18 18 17 16 15 13 11 10 10 9 9 8 7 7 7 8 8 8 8 9 9 9 9 10 11 11 11 12 13 14 15 15 15 16 16 17 17 16
17 18 18 19 19 20 19 19 18 17 15 14 13 12 11 11 10 9 9 9 9 9 9 10 10 10 10 11 11 12 12 13 13 13 14 15 16 16 16 17 17 18 18
18 18 18 19 20 20 20 20 20 19 18 17 15 14 13 13 12 11 11 10 10 10 10 10 11 11 12 12 13 14 15 15 15 16 16 16 17 17 17 18 18 19 19
21 20 19 20 20 21 21 21 22 21 21 20 18 17 16 14 14 13 13 12 12 12 12 12 12 13 14 15 15 16 16 17 18 18 18 18 18 19 19 19 18 19 20
22 22 21 20 21 21 21 22 23 23 23 22 21 21 20 18 16 16 16 15 15 14 14 14 14 15 15 16 17 18 18 19 20 21 21 21 21 21 21 20 19 20 21
24 24 22 21 21 21 21 23 23 24 24 23 23 23 23 21 20 19 18 17 18 17 16 16 17 17 17 18 18 19 20 21 21 22 23 23 23 23 23 23 22 22 21
27 25 24 23 23 22 22 23 25 26 26 26 25 25 24 24 23 22 20 19 19 20 20 20 20 19 19 20 20 20 21 22 23 23 24 25 25 25 25 25 25 24 24
29 28 26 25 24 23 23 22 25 27 27 27 28 27 27 27 25 24 23 21 21 22 22 21 21 21 22 22 22 22 23 23 24 24 25 25 26 26 26 27 27 27 26
32 31 29 27 25 24 24 24 24 26 27 27 28 29 29 28 27 26 25 24 23 23 23 22 22 23 24 24 24 24 24 25 25 26 26 26 26 26 27 27 28 27 27
32 31 31 29 28 26 26 26 26 26 27 28 29 30 30 30 30 28 28 27 26 25 24 23 22 22 23 24 24 24 24 25 26 26 26 27 27 27 27 28 28 28 28
33 30 29 28 28 28 28 28 26 26 27 27 29 30 31 30 30 29 29 29 27 27 26 25 23 23 23 23 24 25 25 25 26 27 27 27 28 28 28 28 29 29 29
32 31 30 30 30 30 29 29 29 29 29 28 28 29 31 31 32 30 29 28 28 27 27 26 25 23 23 23 23 24 25 25 25 27 28 27 28 28 28 28 29 29 29
31 31 30 30 29 29 29 30 30 30 30 30 29 30 30 30 31 30 29 28 27 26 26 26 25 24 23 23 23 24 24 25 25 26 27 28 28 28 28 29 29 30 30
30 31 30 30 29 29 30 29 30 31 31 30 29 29 29 29 30 29 28 27 26 25 25 25 24 24 23 23 24 24 25 25 25 26 26 27 28 28 28 29 29 30 30
29 29 29 28 29 28 26 27 28 27 27 26 26 26 26 27 27 26 25 25 24 24 25 25 24 24 23 24 24 24 25 25 26 26 26 26 27 27 28 28 29 29 30
25 24 24 25 24 24 23 23 24 24 25 25 24 25 25 26 25 24 23 23 23 23 24 24 24 23 23 24 24 24 24 25 26 26 26 26 26 27 27 28 29 29 29
19 19 19 20 20 20 20 21 21 22 23 24 24 23 23 23 22 22 22 22 22 22 23 24 23 23 23 23 23 23 23 24 25 25 26 26 27 27 28 29 29 29 30
13 14 14 14 14 14 15 16 17 17 18 19 19 19 19 19 20 21 22 22 23 22 23 23 23 23 23 22 23 23 23 23 23 24 26 27 28 28 28 28 28 29 29
7 8 8 9 9 10 11 13 14 14 15 16 17 18 18 19 20 21 21 22 23 23 23 23 23 23 22 22 22 23 23 23 23 24 24 25 25 27 28 28 28 28 28
4 6 7 8 9 11 12 13 15 16 16 16 17 18 18 19 20 21 21 22 22 22 22 22 23 23 22 23 23 23 23 23 23 23 23 24 24 25 26 27 27 28 28
6 7 9 10 12 13 14 15 16 17 18 18 19 19 19 19 20 21 21 21 21 21 21 22 22 22 22 22 22 22 22 22 23 23 23 22 23 23 24 25 27 28 29
8 8 9 11 13 14 15 17 18 19 20 20 20 20 20 20 20 20 19 20 19 19 20 20 20 20 20 21 21 21 21 21 22 21 21 21 21 21 22 23 25 27 28
10 11 11 12 14 15 16 17 18 19 20 20 20 20 20 20 19 19 19 18 18 18 18 18 18 19 19 19 19 19 20 20 20 20 20 20 20 21 21 21 22 24 26
11 11 12 13 14 15 16 16 17 17 18 19 19 19 19 19 18 18 17 17 17 17 17 17 16 17 17 17 17 17 18 18 19 19 19 19 19 19 21 21 22 22 23
12 12 12 13 13 14 15 15 16 16 16 16 17 17 17 17 17 16 16 15 15 15 15 15 15 14 15 15 15 15 15 16 17 17 17 17 17 18 18 19 20 21 22

GEFSMA_500_meanwind_054.txt.gz
Wind_Speed
16 16 16 15 15 15 14 13 12 11 10 9 8 7 6 5 5 5 6 6 6 6 6 6 6 6 6 6 6 6 6 7 8 9 10 11 12 13 13 13 13 13 12
17 17 17 17 16 16 16 15 14 13 12 11 11 10 9 7 6 6 6 6 6 6 6 6 6 7 6 6 6 7 7 8 9 10 10 11 12 14 15 15 15 15 15
19 18 18 17 17 17 17 16 15 15 14 13 13 12 10 9 8 8 8 8 7 7 7 7 7 7 7 7 7 8 8 9 10 10 11 12 13 14 15 16 17 17 17
22 21 20 19 18 18 19 18 18 17 17 16 15 14 12 11 11 11 10 10 9 9 9 9 8 8 8 9 9 9 10 10 11 12 12 13 14 15 16 18 18 19 19
26 24 22 21 21 21 21 20 19 19 19 18 17 16 15 14 13 13 12 12 11 11 11 11 10 10 10 10 10 11 11 12 12 13 14 14 15 16 17 18 19 19 20
26 25 23 23 23 22 21 21 21 21 21 20 19 19 18 17 16 16 15 14 14 13 13 13 12 12 11 11 12 12 13 13 14 15 15 16 17 18 18 19 20 21 21
26 26 25 24 23 23 23 23 23 23 23 22 21 21 21 20 19 18 18 18 17 16 15 15 14 13 13 13 13 13 14 15 15 16 17 18 18 19 20 21 21 22 23
28 26 27 26 25 25 25 25 25 24 24 23 23 23 23 22 22 21 20 20 20 19 18 17 17 16 15 15 15 15 15 16 17 18 19 20 20 21 22 23 23 24 25
31 31 29 27 26 26 26 26 27 27 26 25 24 24 24 24 24 23 23 23 22 22 21 20 19 19 18 17 16 16 17 17 18 19 20 21 22 23 24 24 25 26 26
33 32 31 29 28 27 27 28 27 27 27 26 26 26 25 25 25 25 25 24 24 24 23 22 22 21 21 20 19 18 19 19 20 20 21 22 23 24 25 25 26 26 27
35 33 31 30 30 29 30 30 29 28 28 27 27 27 27 27 27 27 27 27 27 26 26 25 25 24 23 22 21 21 20 21 21 21 22 23 23 24 25 26 26 27 27
36 34 32 30 30 31 30 30 30 29 29 29 29 28 29 29 29 28 28 29 29 29 29 28 28 27 26 25 23 23 22 22 22 21 22 22 23 23 24 25 26 27 28
35 35 34 31 30 30 31 30 29 29 29 29 29 30 31 31 31 31 31 31 31 31 31 30 30 30 29 27 25 25 24 24 23 22 22 23 23 23 24 25 26 27 28
32 31 31 30 29 29 28 29 30 30 30 30 31 31 31 32 32 33 33 32 32 31 32 32 32 31 30 28 27 26 26 25 25 24 24 24 24 24 25 25 26 27 28
27 27 27 27 27 28 28 29 29 29 29 30 30 31 31 33 34 35 35 34 33 32 32 33 34 32 30 28 28 27 26 26 26 26 25 25 25 25 25 25 26 27 28
24 25 26 26 27 27 28 30 30 30 30 29 29 29 30 31 33 33 34 33 32 32 32 32 33 31 28 27 27 27 27 26 27 27 26 25 25 25 25 25 26 27 28
20 21 21 23 25 25 26 26 26 26 27 27 28 29 30 30 30 30 30 30 30 30 31 31 30 28 25 26 26 26 26 26 26 26 26 26 25 25 25 26 26 27 27
16 17 18 20 21 21 22 23 23 24 25 25 25 26 26 26 26 27 27 27 28 28 28 28 26 25 24 24 25 25 25 25 25 26 26 26 26 25 26 26 26 27 28
11 12 14 16 17 18 19 20 20 21 22 21 21 21 22 24 24 25 25 26 27 26 25 23 22 21 21 22 22 23 24 24 25 25 26 26 26 26 27 27 27 27 28
6 8 10 12 13 14 14 15 16 17 17 18 18 19 19 20 19 20 21 20 20 19 19 18 18 18 18 20 21 22 23 24 25 25 26 27 27 27 27 26 27 27 27
5 6 7 8 8 9 9 11 12 13 14 14 15 15 15 14 14 14 15 15 15 15 16 16 17 17 18 19 20 21 22 23 24 25 26 26 27 27 27 27 27 27 27
7 7 7 8 8 8 9 10 10 11 12 12 12 12 12 11 12 12 12 12 13 13 14 15 15 16 17 18 19 20 21 22 23 24 25 25 26 26 26 26 26 26 26
9 8 8 8 8 9 9 10 10 10 10 10 11 11 11 11 11 10 11 11 11 11 12 13 14 15 16 17 18 19 20 21 22 23 23 24 24 25 25 25 25 25 24
11 10 11 10 9 10 10 10 11 11 11 11 11 11 11 10 10 10 10 10 10 11 12 13 14 14 15 15 16 17 18 19 19 20 20 21 22 22 23 23 23 23 23
13 12 12 11 11 10 10 10 10 10 11 10 11 11 11 10 10 10 10 10 10 11 11 12 12 13 13 13 14 15 15 16 17 17 17 18 18 19 20 20 21 21 21
16 15 13 12 12 10 9 9 8 8 8 8 8 9 9 9 9 9 9 9 10 10 10 10 10 10 11 12 12 13 13 13 14 14 15 15 16 17 17 18 19 19 20

GEFSMA_500_meanwind_060.txt.gz
Wind_Speed
22 21 19 17 16 15 14 14 13 12 12 11 10 9 9 8 7 7 7 7 6 6 5 5 5 5 5 5 5 5 5 6 6 7 7 8 8 9 9 10 11 11 11
25 24 23 21 19 18 17 16 15 15 14 13 12 12 11 10 10 9 9 9 8 8 7 7 7 7 6 6 6 6 6 7 7 7 8 8 9 10 11 11 12 13 13
28 26 24 23 22 20 19 19 18 17 16 15 15 14 14 13 12 11 11 10 10 10 9 9 9 8 8 8 8 8 8 8 8 9 9 9 10 11 11 12 13 14 15
31 30 27 25 24 23 22 21 20 19 18 17 17 16 16 15 15 14 13 13 13 12 12 11 11 11 10 10 10 9 9 9 9 10 10 11 11 12 12 13 14 15 16
34 33 31 29 26 25 24 23 22 21 20 19 18 18 18 18 17 17 16 16 15 15 14 14 13 13 13 13 12 12 12 11 11 11 11 12 12 13 13 14 15 16 16
36 35 33 29 28 27 26 25 24 23 22 21 21 20 20 20 20 20 19 18 18 17 17 16 16 16 16 15 15 14 14 14 13 13 13 14 14 15 15 16 16 17 18
36 37 36 34 32 30 27 26 25 25 24 23 22 21 22 22 23 22 22 21 20 20 20 19 18 18 18 18 17 17 16 16 16 16 16 16 16 16 17 17 18 19 20
38 37 35 34 33 31 29 28 27 27 26 24 23 23 23 24 24 24 24 23 23 23 22 22 21 21 20 20 20 19 18 18 18 18 17 18 18 18 19 19 20 20 21
39 37 36 34 32 31 30 29 28 27 27 26 25 24 23 24 25 25 24 25 25 25 25 24 24 24 24 23 22 21 21 20 20 20 20 20 20 20 21 21 21 22 23
41 39 37 36 33 31 30 30 29 29 28 27 26 26 26 26 26 26 26 26 26 26 26 26 26 26 26 25 25 24 23 23 22 22 22 22 22 22 23 23 23 23 24
39 38 36 35 35 33 32 30 28 28 27 27 28 28 28 28 28 28 28 28 27 27 28 28 28 28 28 28 27 26 25 25 25 24 24 24 24 24 24 24 24 24 25
38 38 37 35 34 33 31 30 27 27 27 27 28 29 30 30 31 31 30 30 30 30 29 30 30 29 29 30 30 29 28 28 27 27 26 26 26 25 25 25 25 26 26
35 35 35 35 34 32 31 29 28 27 27 28 28 30 31 31 32 32 32 32 32 32 31 32 32 31 31 31 31 31 31 30 30 29 28 28 28 27 27 27 27 27 27
33 33 33 32 33 33 32 31 30 30 30 30 30 30 30 31 32 33 33 34 33 33 34 34 34 33 33 32 32 33 33 33 32 31 31 30 29 28 28 28 28 28 28
29 30 30 30 30 30 31 31 31 30 31 31 31 31 32 32 32 33 33 34 34 34 35 35 35 34 34 34 33 34 34 33 32 32 32 31 30 29 29 28 28 28 28
23 25 26 26 26 26 28 29 29 28 29 30 30 30 31 31 31 31 34 34 34 35 35 36 37 36 36 36 35 34 34 34 34 33 31 31 30 29 28 28 28 28 29
18 20 21 22 23 25 25 25 26 27 27 28 28 29 30 30 31 31 32 32 33 33 34 35 35 36 34 34 35 35 34 35 35 34 32 30 29 28 27 27 27 28 29
14 16 17 18 20 21 22 23 25 26 27 28 28 29 30 30 31 31 31 32 32 32 32 32 32 32 32 32 32 32 33 33 33 32 30 28 28 27 27 27 27 28 28
9 11 13 15 17 18 19 21 23 25 26 27 27 27 28 28 29 30 30 30 30 29 29 29 29 30 30 31 31 31 31 30 30 28 26 26 26 25 26 27 27 28 28
5 7 9 11 13 14 16 17 19 21 22 23 24 24 24 23 24 25 25 26 27 27 28 28 28 27 27 27 27 26 25 24 24 23 22 23 23 24 25 26 27 28 29
3 4 6 8 10 11 13 15 16 17 17 18 19 20 20 21 22 22 22 22 23 24 24 24 25 24 24 23 21 21 20 20 19 19 19 21 22 23 25 26 26 27 28
4 3 4 6 8 9 10 11 13 13 15 16 17 17 17 17 19 19 19 18 17 17 16 17 18 18 18 17 16 16 16 15 16 17 19 20 21 22 23 23 24 25 26
7 5 5 6 7 8 9 10 10 11 12 13 14 15 14 14 14 15 15 15 15 14 13 13 13 13 13 13 13 13 13 14 15 16 17 18 19 20 21 22 23 24 25
9 7 6 6 6 6 7 8 9 11 11 12 12 12 12 12 12 12 13 12 12 13 12 12 13 12 12 11 11 12 13 13 14 15 17 18 19 19 20 20 21 22 23
11 9 8 8 7 6 5 4 5 6 8 8 9 9 9 10 10 10 11 11 11 11 11 10 10 10 9 9 10 11 12 13 14 15 16 16 16 17 17 18 19 19 20
13 11 10 9 8 7 6 4 2 4 5 6 7 8 8 8 9 10 10 10 9 9 9 9 9 9 9 9 9 10 10 11 12 12 13 13 14 14 15 15 16 16 17

GEFSMA_500_meanwind_066.txt.gz
Wind_Speed
25 25 24 23 22 21 20 20 19 17 16 14 13 13 12 11 9 9 8 7 7 6 5 5 4 4 4 4 3 3 2 3 3 3 4 4 5 6 6 7 7 7 7
28 27 27 26 24 23 23 22 21 20 19 17 16 15 14 14 12 11 11 9 8 8 7 7 6 6 6 6 5 5 4 5 4 4 4 5 6 6 7 8 8 8 9
31 29 28 28 27 25 24 23 23 22 21 20 19 17 16 16 15 13 13 12 10 9 9 9 8 8 8 8 8 7 7 7 7 7 7 7 7 7 8 9 9 10 10
33 32 30 28 28 28 26 25 25 24 23 22 21 20 19 18 17 16 15 14 12 11 11 11 10 10 10 10 10 10 9 9 9 9 9 9 10 10 10 10 11 11 12
36 34 32 30 29 29 29 27 27 26 25 23 23 22 22 20 20 18 17 16 15 14 13 13 13 12 12 12 12 12 12 11 11 11 11 11 11 12 12 12 12 13 14
37 35 34 33 31 31 30 30 28 28 28 26 25 23 23 22 21 21 20 19 18 17 16 15 15 14 14 14 14 15 14 14 14 14 14 14 14 14 14 14 15 15 16
40 37 36 36 34 33 32 31 30 29 29 28 26 25 25 24 24 23 22 21 20 19 19 18 17 17 17 17 17 17 17 17 17 17 17 17 16 16 17 17 17 17 17
40 39 38 37 36 34 33 32 30 30 30 29 28 26 25 24 26 25 25 24 23 22 21 21 20 20 20 19 19 19 19 19 19 19 19 19 19 19 19 19 19 20 20
40 39 38 38 36 34 34 34 32 30 31 30 29 28 26 25 26 25 25 25 24 23 23 23 22 22 22 22 22 22 21 21 21 21 21 21 21 22 22 22 22 22 23
38 39 38 37 35 34 34 34 34 33 32 31 30 30 29 27 27 26 25 25 26 25 24 25 24 23 23 23 23 23 23 24 24 24 24 24 24 24 24 25 25 25 25
37 37 36 36 35 35 34 34 34 34 32 32 31 32 32 30 28 27 26 25 25 24 24 25 25 25 25 24 24 24 25 25 26 26 27 27 27 27 27 27 27 27 28
34 35 35 35 34 34 34 35 33 33 33 32 32 32 32 31 31 29 28 27 25 25 26 26 26 26 26 25 25 26 26 26 27 27 28 28 29 29 29 30 30 30 30
31 32 32 33 34 33 33 33 32 32 32 32 31 30 29 30 30 30 29 29 29 28 28 27 28 28 27 27 26 27 27 28 28 29 29 30 31 31 31 32 32 32 32
27 29 30 31 31 31 31 31 31 30 30 29 29 30 29 28 28 28 29 29 29 30 29 29 29 29 29 29 28 29 30 30 31 31 31 32 32 33 33 33 34 34 34
22 24 26 28 28 28 29 29 29 29 28 28 28 28 28 28 27 27 28 29 29 30 30 31 31 31 31 31 31 31 32 32 32 32 33 33 33 34 34 35 35 35 35
16 19 21 24 25 25 26 27 28 27 27 27 28 28 28 28 27 29 30 30 30 31 31 30 30 31 31 31 32 32 32 31 32 33 33 34 34 34 35 35 36 36 36
12 14 15 18 21 22 24 25 27 28 27 26 26 27 27 28 28 30 29 29 30 30 30 30 30 30 31 32 32 32 32 32 33 34 34 34 34 35 35 36 36 36 36
6 8 10 13 16 19 21 23 23 25 25 25 25 26 26 26 27 28 29 29 29 28 29 30 29 29 30 30 30 30 30 31 32 33 33 33 33 33 35 35 34 33 32
4 5 6 9 12 15 17 18 19 21 22 23 23 24 25 25 25 26 27 27 27 27 27 28 29 29 28 28 28 28 27 27 28 29 30 30 31 32 32 31 30 28 28
5 4 4 5 8 10 12 14 16 18 20 21 22 22 22 23 23 24 25 25 25 26 26 26 26 27 26 26 26 26 25 24 25 25 25 26 26 26 26 26 25 25 25
7 6 5 6 7 8 10 12 14 16 18 19 20 20 21 21 22 22 22 23 24 24 23 23 22 22 23 23 22 23 23 23 22 21 21 21 21 21 21 22 23 23 23
9 8 7 6 7 7 7 9 11 13 15 17 17 18 19 20 20 20 20 20 20 20 20 19 19 18 18 19 19 19 19 20 20 18 18 17 16 16 17 18 19 19 20
11 9 8 7 7 7 7 7 8 10 11 12 13 15 16 16 16 16 16 17 17 16 16 15 15 15 15 15 16 17 16 15 15 14 14 13 14 15 15 16 16 17 18
13 11 10 9 7 6 5 5 6 7 8 9 11 12 12 13 13 13 13 13 14 14 14 14 14 13 13 14 14 14 12 11 11 10 10 10 12 12 13 13 14 15 16
15 14 13 12 9 6 4 3 3 4 4 6 7 9 9 10 10 10 10 11 12 12 13 12 12 11 10 10 10 9 9 8 8 7 7 8 9 10 11 11 12 13 13
17 15 15 14 12 10 7 4 2 0 2 3 4 6 7 8 7 7 8 8 8 9 10 11 10 9 8 8 7 7 7 6 6 6 6 7 7 8 9 10 10 10 10

GEFSMA_500_meanwind_072.txt.gz
Wind_Speed
27 26 27 27 25 24 24 23 21 20 18 17 16 15 14 13 12 11 10 9 9 8 7 6 5 4 4 4 4 4 4 4 4 4 5 6 7 8 8 9 9 9 10
30 29 28 28 27 26 25 24 23 22 21 19 18 17 15 14 14 14 13 11 10 9 9 7 6 6 5 5 5 5 5 5 4 4 5 5 6 8 8 9 9 10 10
32 30 29 28 28 28 28 26 25 22 22 21 19 18 17 17 17 16 15 13 12 11 10 9 8 8 7 6 6 6 6 5 5 5 5 6 6 7 8 9 10 10 11
33 32 30 30 28 29 28 27 26 24 22 22 21 20 20 20 20 19 18 16 15 13 12 11 10 10 9 8 8 7 7 7 7 6 6 7 7 7 8 9 10 11 11
34 33 32 31 30 28 27 26 26 26 25 24 24 23 22 22 22 21 20 18 17 16 15 14 12 12 11 10 10 9 8 8 8 8 8 8 8 9 9 10 10 11 12
36 35 33 32 30 29 28 26 26 26 26 26 25 24 24 23 23 22 21 20 19 18 17 16 15 14 13 13 12 11 10 10 10 10 10 10 11 11 11 11 12 12 13
37 36 34 34 33 31 30 28 28 28 27 27 26 25 25 25 25 24 23 22 21 20 19 19 18 17 15 15 14 14 13 13 12 12 13 13 13 13 13 14 14 14 14
37 37 36 35 34 34 32 30 30 29 28 28 27 27 26 26 27 25 24 24 24 23 22 21 20 20 19 17 17 16 16 15 15 15 15 15 15 15 16 15 16 16 16
36 36 36 36 35 34 33 32 32 32 30 29 29 28 28 27 28 27 26 26 26 25 24 24 23 22 21 20 19 19 19 18 18 18 17 17 18 18 17 18 18 18 18
34 35 36 36 36 35 35 34 33 33 32 31 30 30 30 30 30 30 29 27 27 26 25 25 25 24 23 22 22 22 21 20 20 20 20 20 20 20 20 20 20 21 21
32 34 35 35 36 36 36 35 34 34 34 33 32 31 31 30 30 32 31 30 29 27 27 27 27 26 25 24 23 23 23 22 22 22 22 21 21 21 22 22 22 23 23
29 31 33 34 35 36 36 36 36 36 35 34 33 33 33 31 30 32 33 32 31 29 28 28 29 28 28 26 25 24 24 24 24 24 23 23 23 23 24 24 25 25 26
25 28 30 32 33 34 35 36 37 38 37 36 35 34 34 33 33 32 32 33 34 32 31 30 30 29 28 27 26 26 26 26 26 26 26 25 25 25 25 26 27 27 28
20 22 25 29 31 33 35 35 36 37 38 37 36 36 35 34 34 33 33 33 34 34 33 32 32 31 30 29 29 28 27 27 26 27 27 27 27 27 28 28 28 29 30
16 18 21 24 28 30 33 34 35 35 36 36 35 35 35 34 34 33 33 33 34 34 35 34 33 33 31 30 30 29 29 28 28 29 29 29 29 29 29 30 30 31 31
10 13 17 20 23 25 28 32 33 34 34 35 36 36 35 34 33 32 32 32 33 34 35 35 34 34 33 32 31 31 30 31 30 30 31 31 31 31 30 31 32 32 32
7 9 12 15 18 21 24 27 28 29 31 33 33 33 32 31 31 31 31 31 32 33 33 34 34 34 33 32 32 31 31 31 30 30 30 31 32 31 31 32 32 32 32
6 7 8 11 14 17 20 23 25 27 28 29 30 30 30 29 29 30 30 30 30 31 32 32 33 33 33 33 32 31 31 31 31 30 30 31 32 31 31 31 32 32 32
6 5 5 6 9 12 15 18 20 23 24 25 26 27 28 28 28 28 29 29 29 30 31 31 30 30 30 31 30 30 30 30 29 28 28 29 29 30 30 30 30 31 32
7 5 4 4 5 7 9 13 15 18 21 22 23 24 25 26 27 27 27 27 27 28 28 29 29 28 27 27 28 27 27 27 26 25 25 26 26 27 28 28 28 29 30
9 6 5 3 3 4 6 8 12 14 16 18 19 21 22 23 24 25 25 24 24 25 25 25 26 25 25 25 25 26 25 24 25 24 24 24 24 24 25 25 26 26 26
10 8 6 4 2 3 4 6 9 11 14 15 16 18 19 20 21 21 20 20 20 21 21 22 23 23 23 22 23 23 23 22 23 22 22 21 21 21 21 22 22 21 21
12 10 8 6 4 3 2 3 7 9 11 12 14 16 17 17 17 17 18 18 18 19 19 19 19 20 20 20 20 20 20 19 19 19 19 19 19 18 19 19 18 17 17
14 12 10 8 6 4 2 0 3 5 8 9 11 13 14 15 15 15 16 15 16 17 18 18 18 18 19 19 18 17 17 17 17 17 17 17 17 16 15 14 14 14 14
16 14 12 11 9 7 5 3 2 2 5 7 8 10 11 12 12 13 14 14 14 15 16 16 15 15 15 15 15 15 15 15 15 14 14 14 13 12 11 10 10 10 10
19 17 15 14 12 10 8 5 3 3 4 5 7 8 10 10 10 11 12 12 12 13 13 13 13 13 13 13 14 14 14 14 14 14 13 12 10 9 9 8 8 7 7